• MPC Preparation (Info)

  • MPEC 2016-S77 : 2016 SH2

    The following Minor Planet Electronic Circular may be linked-to from your own Web pages, but must not otherwise be redistributed electronically.

    A form allowing access to any MPEC is at the bottom of this page.


    Read MPEC 2016-S76 Read MPEC 2016-S78


    M.P.E.C. 2016-S77                                Issued 2016 Sept. 27, 21:38 UT
    
         The Minor Planet Electronic Circulars contain information on unusual
             minor planets and routine data on comets.  They are published
        on behalf of Division F of the International Astronomical Union by the
              Minor Planet Center, Smithsonian Astrophysical Observatory,
                              Cambridge, MA 02138, U.S.A.
    
                 Prepared using the Tamkin Foundation Computer Network
    
                                  MPC@CFA.HARVARD.EDU
                URL https://www.minorplanetcenter.net/    ISSN 1523-6714
    
                                       2016 SH2
    
    Observations:
         K16S02H* C2016 09 25.11055 22 17 38.10 +23 08 41.6          19.1 VqES077G96
         K16S02H  C2016 09 25.11483 22 17 51.09 +23 09 09.4                qES077G96
         K16S02H  C2016 09 25.11913 22 18 04.18 +23 09 36.0          19.1 VqES077G96
         K16S02H  C2016 09 25.12341 22 18 17.00 +23 10 02.7          19.6 VqES077G96
         K16S02H  C2016 09 25.27361 22 25 28.74 +23 23 11.0          19.8 VqES077G96
         K16S02H  C2016 09 25.27393 22 25 29.64 +23 23 12.2          19.9 VqES077G96
         K16S02H  C2016 09 25.27422 22 25 30.47 +23 23 13.6          19.8 VqES077G96
         K16S02H KC2016 09 25.81803 22 49 46.38 +23 51 01.9          19.7 RrES077106
         K16S02H KC2016 09 25.82011 22 49 50.89 +23 51 08.1          19.4 RrES077106
         K16S02H KC2016 09 25.82700 22 50 09.95 +23 50 27.2                qES077J95
         K16S02H KC2016 09 25.83470 22 50 27.01 +23 50 48.0                qES077J95
         K16S02H KC2016 09 25.83890 22 50 36.33 +23 50 58.7          20.0 RqES077J95
         K16S02H FC2016 09 25.84109 22 50 36.22 +23 51 42.3                qES077246
         K16S02H FC2016 09 25.84126 22 50 36.53 +23 51 42.5                qES077246
         K16S02H FC2016 09 25.84151 22 50 37.29 +23 51 43.1                qES077246
         K16S02H KC2016 09 25.93564 22 53 59.86 +23 55 22.0          19.4 RqES077203
         K16S02H KC2016 09 25.97392 22 55 18.88 +23 56 24.3          19.8 RqES077203
         K16S02H KC2016 09 25.99694 22 56 06.18 +23 56 54.7          19.6 RqES077204
         K16S02H KC2016 09 26.00198 22 56 16.48 +23 57 01.1                qES077204
         K16S02H KC2016 09 26.00732 22 56 27.37 +23 57 07.9                qES077204
         K16S02H KC2016 09 27.19774923 30 35.16 +24 09 35.0          20.0 VuES077H21
         K16S02H KC2016 09 27.20202223 30 40.39 +24 09 35.0          20.2 VuES077H21
         K16S02H KC2016 09 27.20703223 30 46.47 +24 09 34.5          20.1 VuES077H21
    
    Observer details:
    106 Crni Vrh.  Observer B. Mikuz.  0.6-m f/3.3 Deltagraph + CCD.
    203 GiaGa Observatory.  Observers S. Foglia, G. Galli.  Measurer G. Galli.
        0.28-m f/6.8 Schmidt-Cassegrain + CCD.
    204 Schiaparelli Observatory.  Observer L. Buzzi.  0.60-m f/4.64 reflector
        + CCD.
    246 Klet Observatory-KLENOT.  Observers M. Tichy, J. Ticha.  Measurer M. Tichy.
        1.06-m KLENOT Telescope + CCD.
    G96 Mt. Lemmon Survey.  Observer D. C. Fuls.  Measurers E. J. Christensen,
        D. C. Fuls, A. R. Gibbs, A. D. Grauer, J. A. Johnson, R. A. Kowalski,
        S. M. Larson, G. J. Leonard, R. G. Matheny, R. L. Seaman, F. C. Shelly.
        1.5-m reflector + 10K CCD.
    H21 Astronomical Research Observatory, Westfield.  Observer R. Holmes.
        Measurers S. Foglia, L. Buzzi, T. Linder, R. Holmes.  0.76-m f/3.0
        astrograph + CCD.
    J95 Great Shefford.  Observer P. Birtwhistle.  0.40-m f/6.0 Schmidt-Cassegrain
        + CCD.
    
    Orbital elements:
    2016 SH2                                                 Earth MOID = 0.0050 AU
    Epoch 2016 July 31.0 TT = JDT 2457600.5                 MPC
    M 349.92962              (2000.0)            P               Q
    n   0.53293966     Peri.  323.55991     +0.73040929     +0.68298168
    a   1.5066673      Node   353.35257     -0.61334156     +0.65189303
    e   0.3805857      Incl.    3.06424     -0.30052355     +0.32950190
    P   1.85           H   27.2           G   0.15           U   6
    Residuals in seconds of arc
    160925 G96  1.2-  0.3-    160925 106 (1.8-  0.3+)   160925 203  0.4-  0.2+
    160925 G96  0.6-  0.4+    160925 J95  0.3+  0.2-    160925 204  0.0   0.7+
    160925 G96  1.0+  0.0     160925 J95  0.3-  0.0     160926 204  0.1+  0.5+
    160925 G96  0.3+  0.0     160925 J95  0.1+  0.4-    160926 204  0.2+  0.5+
    160925 G96  0.0   0.5+    160925 246 (2.4-  2.8+)   160927 H21  0.2-  0.2-
    160925 G96  0.2+  0.3+    160925 246 (3.3-  2.6+)   160927 H21  0.2+  0.3+
    160925 G96  0.5+  0.4+    160925 246 (0.3-  2.5+)   160927 H21  0.1+  0.5+
    160925 106  0.7-  0.4-    160925 203  0.3+  0.0
    
    Ephemeris:
    2016 SH2                 a,e,i = 1.51, 0.38, 3                   q = 0.9333
    Date    TT    R. A. (2000) Decl.     Delta      r     Elong.  Phase     V
    2016 08 28    13 29 47.0 -19 23 02   0.1306  0.9386    53.6   120.0    27.5
    ...
    2016 09 12    14 05 33.9 -19 00 11   0.05493 0.9695    46.6   131.0    26.6
    ...
    2016 09 20    15 50 44.5 -10 39 36   0.01749 0.9959    61.0   118.1    23.1
    ...
    2016 09 26    22 56 22.3 +24 00 02   0.01922 1.0194   150.9    28.6    19.9
    2016 09 27    23 25 57.1 +24 11 25   0.02355 1.0236   154.5    24.9    20.3
    2016 09 28    23 46 11.3 +24 05 57   0.02812 1.0279   156.6    22.8    20.6
    ...
    2016 10 04    00 36 10.3 +22 56 16   0.05745 1.0549   161.4    17.6    22.0
    ...
    2016 10 12    00 54 56.7 +21 47 08   0.09926 1.0942   165.2    13.5    23.2
    ...
    2016 10 27    01 07 35.5 +20 08 27   0.1871  1.1750   164.2    13.3    24.7
    
    A. U. Tomatic                (C) Copyright 2016 MPC           M.P.E.C. 2016-S77
    

    Read MPEC 2016-S76 Read MPEC 2016-S78


    MPEC number:

    Enter an MPEC number in one of the following forms:

    • 1997-B01 (the full form)
    • J97B01 (the packed version of the full form)
    • B01 (the abbreviated form)